CZ-6A DEB, 61386

Orbit data source: Space-Track

CZ-6A DEB, 61386 is space debris in LEO originally from a launch on Tue, 06 Aug 2024 UTC launched from the Taiyaun Space Center, China (TSC). Debris objects in space refer to the collection of defunct objects orbiting the Earth. Examples of debris include non-operational satellites, rocket bodies, and fragments generated from explosions, collisions, or faulty payload assembly.

Loading next visibility...
Identifier
61386, 2024-140XB
Orbit
LEO
Country
Flag of CNCN / PRC
Related business
Manufacturer
SAST
Mission
Spacecraft
Bus & Motor
Unknown
Mass
Unknown
Launch date (UTC)
2024-08-06 (2 years ago)
Launch vehicle
Unknown
Launch site
Taiyaun Space Center, China (TSC)
Object type
Payload
Rocket body
Debris
Shape & HBR
Unknown shape, 0.1 m
Radar Cross Section
Medium (>0.1 m² and <1 m²)

Expand to show TLE details & history
Last TLE update: 16 hours ago

TLE from 16 hours ago
0 CZ-6A DEB
1 61386U 24140XB  26171.30109859  .00004383  00000-0  11907-2 0  9995
2 61386  88.7939 254.6230 0012434 267.0855  92.8927 14.47388124 94124
Epoch: 2026-06-20T07:13Z
TLE epoch observation values (Epoch: 2026-06-20T07:13:34.918Z)
Latitude
-0.00003°
Longitude
-122.29018°
Altitude
737.741 km
Speed
7.486 km/s
True Right ascension
16h 58m 29s
True Declination
0° 00' 00"
Sunlit
Object was in full shadow at epoch
Visualization orbit readout
Latitude
Unknown
Longitude
Unknown
Altitude
Unknown
Speed
Unknown
Apparent Right ascension
Unknown
Apparent Declination
Unknown
Sunlit
N/A
Visualization observer readout
Local Sidereal Time
10:17:09
Azimuth
Unknown
Elevation
Unknown
Doppler factor
Unknown
Orbital elements
Apogee altitude
739.945 km
Perigee altitude
722.266 km
Semi-major axis
7,109.242 km
Eccentricity
0.00124
Inclination
88.7939°
RAAN
254.623°
Arg. of periapsis
267.0855°
True anomaly
93.03499°
Mean anomaly
92.8927°
Eccentric anomaly
92.96385°
Mean motion
3.62083 °/min
Orbital period
99.42 mins
BSTAR
0.0011907
Loading maneuver chart data...
Computing Atmospheric mass density...
Loading historical data...
Loading historical data...
Loading historical data...
Loading historical data...
Loading historical data...
Loading historical data...
Loading historical data...

Documentation

Showing up to 5 results
|